Terug naar catalogus

STARLINK-36067

ActiefCommunicatieVLEO
NORAD 66965·PAYLOAD·🇺🇸 United States

Gelanceerd Dec 8, 2025 vanaf Cape Canaveral Space Force Station

Loading…

Volgende Passages (komende 24 uur)

TLE

VersSource: CelesTrak SupGP

Epoch: Sep 15, 2026, 03:51 UTC

1 66965C 25288G   26258.16090278  .00004114  00000+0  14894-3 0  2589
2 66965  43.0015  33.1950 0001551 267.0857 221.4659 15.27586717    14

Volg STARLINK-36067 in realtime met AllMySat

Download on the App Store